Hayward, WI

8:07 AM CDT on August 20, 2017 (GMT -0500)
Sawyer County

Weather History for KHYR - April, 2013

Change the Weather History Date:

Monday, April 1, 2013

  Actual Average Record
Temperature  
Mean Temperature 24 °F -  
Max Temperature 33 °F 49 °F 64 °F (2012)
Min Temperature 17 °F 25 °F 10 °F (2002)
Degree Days  
Heating Degree Days 40    
Moisture  
Dew Point 6 °F    
Average Humidity 46    
Maximum Humidity 65    
Minimum Humidity 29    
Precipitation  
Precipitation 0.00 in - - ()
Sea Level Pressure  
Sea Level Pressure 30.15 in    
Wind  
Wind Speed 6 mph (WNW)    
Max Wind Speed 10 mph    
Max Gust Speed 23 mph    
Visibility 10 miles    
Events      
Averages and records for this station are not official NWS values.
T = Trace of Precipitation, MM = Missing Value Source: NWS Daily Summary

Daily Weather History Graph

Daily Weather History Graph

Search for Another Location

Airport or City:

Trip Planner

Search our weather history database for the weather conditions in past years. The results will help you decide how hot, cold, wet, or windy it might be!

Date:

Astronomy

Apr. 01, 2013 Rise Set
Actual Time 6:45 AM CDT 7:34 PM CDT
Civil Twilight 6:14 AM CDT 8:05 PM CDT
Nautical Twilight 5:38 AM CDT 8:41 PM CDT
Astronomical Twilight 5:01 AM CDT 9:19 PM CDT
Moon 12:57 AM CDT (4/1) 10:17 AM CDT (4/1)
Length of Visible Light 13h 50m
Length of Day
12h 49m
Waning Gibbous, 67% of the Moon is Illuminated
Apr 1
Waning Gibbous
Apr 2
Last Quarter
Apr 10
New
Apr 18
First Quarter
Apr 25
Full

Hourly Weather History & Observations

Time (CDT) Temp. Windchill Dew Point Humidity Pressure Visibility Wind Dir Wind Speed Gust Speed Precip Events Conditions
12:53 AM 24.1 °F 16.0 °F 9.0 °F 53% 30.05 in 10.0 mi NNW 6.9 mph - N/A   Overcast
1:53 AM 23.0 °F 14.7 °F 10.0 °F 58% 30.07 in 10.0 mi Variable 6.9 mph - 0.00 in   Overcast
2:53 AM 23.0 °F 17.0 °F 5.0 °F 46% 30.07 in 10.0 mi Variable 4.6 mph - 0.00 in   Overcast
3:53 AM 21.9 °F 15.7 °F 6.1 °F 51% 30.08 in 10.0 mi Variable 4.6 mph - N/A   Mostly Cloudy
4:53 AM 21.0 °F 16.2 °F 9.0 °F 60% 30.10 in 10.0 mi Variable 3.5 mph - N/A   Scattered Clouds
5:53 AM 19.0 °F 13.9 °F 7.0 °F 59% 30.12 in 10.0 mi Variable 3.5 mph - N/A   Clear
6:53 AM 17.1 °F 8.7 °F 7.0 °F 65% 30.15 in 10.0 mi Variable 5.8 mph - N/A   Clear
7:53 AM 18.0 °F 9.8 °F 7.0 °F 62% 30.18 in 10.0 mi Variable 5.8 mph - N/A   Clear
8:53 AM 19.0 °F 11.1 °F 7.0 °F 59% 30.19 in 10.0 mi Variable 5.8 mph - N/A   Clear
9:53 AM 21.9 °F 13.4 °F 7.0 °F 53% 30.19 in 10.0 mi Variable 6.9 mph - N/A   Clear
10:53 AM 24.1 °F 15.2 °F 7.0 °F 48% 30.19 in 10.0 mi NW 8.1 mph - N/A   Clear
12:53 PM 28.0 °F 20.0 °F 3.9 °F 36% 30.18 in 10.0 mi NNW 8.1 mph 18.4 mph N/A   Clear
1:53 PM 30.0 °F 22.4 °F 3.9 °F 33% 30.17 in 10.0 mi WNW 8.1 mph 17.3 mph N/A   Clear
3:53 PM 32.0 °F 23.6 °F 3.9 °F 31% 30.16 in 10.0 mi West 10.4 mph 17.3 mph N/A   Clear
4:53 PM 32.0 °F 24.2 °F 3.0 °F 29% 30.16 in 10.0 mi WNW 9.2 mph 23.0 mph N/A   Clear
5:53 PM 32.0 °F 25.6 °F 3.0 °F 29% 30.17 in 10.0 mi Variable 6.9 mph 17.3 mph N/A   Clear
6:53 PM 30.9 °F 25.2 °F 3.0 °F 31% 30.17 in 10.0 mi Variable 5.8 mph - N/A   Clear
7:53 PM 28.9 °F 25.2 °F 3.9 °F 35% 30.17 in 10.0 mi WNW 3.5 mph - N/A   Clear
8:53 PM 28.0 °F 22.8 °F 5.0 °F 38% 30.19 in 10.0 mi WNW 4.6 mph - N/A   Clear
9:53 PM 27.0 °F 23.0 °F 6.1 °F 41% 30.20 in 10.0 mi West 3.5 mph - N/A   Clear
10:53 PM 27.0 °F - 6.1 °F 41% 30.20 in 10.0 mi Calm Calm - N/A   Clear
11:53 PM 25.0 °F 19.3 °F 7.0 °F 46% 30.21 in 10.0 mi Variable 4.6 mph - N/A   Clear